• In Belarus
  • List of Countries
  • For 7 days
  • Water Temperature
  • Satellite Maps
  • Weather Map
  • Weather Widgets
  • user-avatar
    Login

    Hourly Weather Giumri

    Today, 18 December, Monday

    Time Temperature Precipitation Wind Pressure Humidity
    00:00 -1°C° 0 mm 1 mps 634 mmHg 69%
    01:00 -1°C° 0 mm 1 mps 634 mmHg 70%
    02:00 -3°C° 0 mm 2 mps 634 mmHg 71%
    03:00 -3°C° 0 mm 2 mps 634 mmHg 74%
    04:00 -3°C° 0 mm 2 mps 634 mmHg 76%
    05:00 -3°C° 0 mm 2 mps 634 mmHg 78%
    06:00 -3°C° 0 mm 2 mps 634 mmHg 80%
    07:00 -3°C° 0 mm 2 mps 634 mmHg 81%
    08:00 -2°C° 0 mm 2 mps 634 mmHg 81%
    09:00 -1°C° 0 mm 2 mps 634 mmHg 81%
    10:00 +1°C° 0 mm 2 mps 634 mmHg 81%
    11:00 +2°C° 0 mm 2 mps 634 mmHg 81%
    12:00 +3°C° 0 mm 2 mps 634 mmHg 81%
    13:00 +3°C° 0 mm 2 mps 634 mmHg 82%
    14:00 +3°C° 0 mm 2 mps 634 mmHg 82%
    15:00 +3°C° 0 mm 2 mps 634 mmHg 82%
    16:00 +2°C° 0 mm 2 mps 634 mmHg 83%
    17:00 +1°C° 0 mm 2 mps 634 mmHg 84%
    18:00 -1°C° 0 mm 2 mps 634 mmHg 85%
    19:00 -1°C° 0 mm 2 mps 634 mmHg 85%
    20:00 -1°C° 0 mm 2 mps 634 mmHg 86%
    21:00 -1°C° 0 mm 2 mps 634 mmHg 86%
    22:00 -1°C° 0 mm 2 mps 634 mmHg 86%
    23:00 -1°C° 0 mm 2 mps 634 mmHg 86%

    Tomorrow, 19 December, Tuesday

    Time Temperature Precipitation Wind Pressure Humidity
    00:00 -1°C° 0 mm 2 mps 634 mmHg 87%
    01:00 -1°C° 0 mm 2 mps 634 mmHg 87%
    02:00 -1°C° 0 mm 2 mps 634 mmHg 87%
    03:00 -1°C° 0 mm 2 mps 634 mmHg 87%
    04:00 -2°C° 0 mm 2 mps 634 mmHg 87%
    05:00 -2°C° 0 mm 2 mps 634 mmHg 87%
    06:00 -2°C° 0 mm 2 mps 634 mmHg 87%
    07:00 -1°C° 0 mm 2 mps 634 mmHg 86%
    08:00 -1°C° 0 mm 2 mps 634 mmHg 85%
    09:00 +1°C° 0 mm 2 mps 634 mmHg 85%
    10:00 +2°C° 0 mm 2 mps 634 mmHg 84%
    11:00 +3°C° 0 mm 2 mps 634 mmHg 83%
    12:00 +4°C° 0 mm 2 mps 634 mmHg 82%
    13:00 +4°C° 0 mm 2 mps 634 mmHg 82%
    14:00 +3°C° 0 mm 2 mps 634 mmHg 81%
    15:00 +3°C° 0 mm 2 mps 634 mmHg 81%
    16:00 +2°C° 0 mm 2 mps 634 mmHg 83%
    17:00 +1°C° 0 mm 2 mps 634 mmHg 84%
    18:00 -1°C° 0 mm 2 mps 634 mmHg 86%
    19:00 -1°C° 0 mm 2 mps 635 mmHg 86%
    20:00 -2°C° 0 mm 2 mps 635 mmHg 85%
    21:00 -2°C° 0 mm 2 mps 635 mmHg 85%
    22:00 -2°C° 0 mm 2 mps 635 mmHg 85%
    23:00 -2°C° 0 mm 2 mps 635 mmHg 85%

    Day after tomorrow, 20 December, Wednesday

    Time Temperature Precipitation Wind Pressure Humidity
    00:00 +1°C° 0 mm 1 mps 635 mmHg 85%
    01:00 +1°C° 0 mm 1 mps 635 mmHg 85%
    02:00 +1°C° 0 mm 1 mps 636 mmHg 84%
    03:00 +1°C° 0 mm 1 mps 636 mmHg 84%
    04:00 0°C° 0 mm 1 mps 635 mmHg 85%
    05:00 0°C° 0 mm 1 mps 635 mmHg 85%
    06:00 0°C° 0 mm 1 mps 635 mmHg 85%
    07:00 +1°C° 0.1 mm 1 mps 636 mmHg 85%
    08:00 +1°C° 0.1 mm 1 mps 636 mmHg 85%
    09:00 +2°C° 0.1 mm 1 mps 636 mmHg 84%
    10:00 +3°C° 0.2 mm 1 mps 637 mmHg 84%
    11:00 +3°C° 0.2 mm 2 mps 637 mmHg 83%
    12:00 +3°C° 0.2 mm 2 mps 637 mmHg 83%
    13:00 +4°C° 0.3 mm 2 mps 636 mmHg 83%
    14:00 +4°C° 0.3 mm 2 mps 636 mmHg 84%
    15:00 +4°C° 0.3 mm 2 mps 636 mmHg 84%
    16:00 +3°C° 0.2 mm 2 mps 636 mmHg 85%
    17:00 +3°C° 0.2 mm 2 mps 636 mmHg 87%
    18:00 +2°C° 0.2 mm 2 mps 636 mmHg 88%
    19:00 +2°C° 0.3 mm 2 mps 636 mmHg 88%
    20:00 +2°C° 0.3 mm 2 mps 637 mmHg 89%
    21:00 +2°C° 0.3 mm 2 mps 637 mmHg 89%
    22:00 +2°C° 0.4 mm 2 mps 637 mmHg 90%
    23:00 +2°C° 0.4 mm 2 mps 637 mmHg 90%

    21 December, Thursday

    Time Temperature Precipitation Wind Pressure Humidity
    00:00 +2°C° 0.4 mm 2 mps 637 mmHg 91%
    01:00 +2°C° 0.5 mm 2 mps 637 mmHg 91%
    02:00 +2°C° 0.5 mm 2 mps 637 mmHg 92%
    03:00 +3°C° 0.5 mm 1 mps 637 mmHg 92%
    04:00 +3°C° 0.4 mm 1 mps 638 mmHg 92%
    05:00 +3°C° 0.4 mm 1 mps 638 mmHg 92%
    06:00 +3°C° 0.4 mm 1 mps 638 mmHg 92%
    07:00 +4°C° 0.2 mm 1 mps 638 mmHg 91%
    08:00 +4°C° 0.2 mm 1 mps 638 mmHg 90%
    09:00 +4°C° 0.2 mm 1 mps 638 mmHg 89%
    10:00 +4°C° 0.2 mm 2 mps 638 mmHg 89%
    11:00 +4°C° 0.2 mm 2 mps 638 mmHg 89%
    12:00 +5°C° 0.2 mm 2 mps 638 mmHg 88%
    13:00 +5°C° 0.2 mm 2 mps 637 mmHg 88%
    14:00 +5°C° 0.2 mm 2 mps 637 mmHg 87%
    15:00 +5°C° 0.2 mm 2 mps 637 mmHg 86%
    16:00 +5°C° 0.1 mm 2 mps 637 mmHg 87%
    17:00 +4°C° 0.1 mm 2 mps 637 mmHg 87%
    18:00 +3°C° 0.1 mm 2 mps 637 mmHg 88%
    19:00 +3°C° 0.1 mm 2 mps 637 mmHg 88%
    20:00 +2°C° 0.1 mm 2 mps 637 mmHg 88%
    21:00 +2°C° 0.1 mm 2 mps 637 mmHg 88%
    22:00 +3°C° 0 mm 1 mps 637 mmHg 88%
    23:00 +3°C° 0 mm 1 mps 637 mmHg 88%

    22 December, Friday

    Time Temperature Precipitation Wind Pressure Humidity
    00:00 +2°C° 0 mm 1 mps 637 mmHg 88%
    01:00 +2°C° 0 mm 1 mps 636 mmHg 88%
    02:00 +2°C° 0 mm 1 mps 636 mmHg 88%
    03:00 +2°C° 0 mm 1 mps 636 mmHg 88%
    04:00 +1°C° 0.1 mm 2 mps 635 mmHg 88%
    05:00 +1°C° 0.1 mm 2 mps 635 mmHg 88%
    06:00 +1°C° 0.1 mm 2 mps 634 mmHg 87%
    07:00 +1°C° 0.1 mm 2 mps 634 mmHg 87%
    08:00 +2°C° 0.1 mm 2 mps 634 mmHg 86%
    09:00 +1°C° 0.1 mm 3 mps 634 mmHg 85%
    10:00 +2°C° 0.4 mm 3 mps 633 mmHg 85%
    11:00 +2°C° 0.4 mm 3 mps 633 mmHg 84%
    12:00 +3°C° 0.4 mm 4 mps 633 mmHg 83%
    13:00 +3°C° 0.2 mm 4 mps 632 mmHg 83%
    14:00 +3°C° 0.2 mm 3 mps 632 mmHg 83%
    15:00 +3°C° 0.2 mm 3 mps 632 mmHg 82%
    16:00 +3°C° 0.6 mm 3 mps 632 mmHg 84%
    17:00 +2°C° 0.6 mm 3 mps 632 mmHg 87%
    18:00 +3°C° 0.6 mm 2 mps 632 mmHg 89%
    19:00 +3°C° 0.8 mm 2 mps 632 mmHg 90%
    20:00 +3°C° 0.8 mm 2 mps 632 mmHg 90%
    21:00 +3°C° 0.8 mm 2 mps 632 mmHg 91%
    22:00 +2°C° 0.5 mm 2 mps 632 mmHg 92%
    23:00 +3°C° 0.5 mm 1 mps 632 mmHg 92%

    23 December, Saturday

    Time Temperature Precipitation Wind Pressure Humidity
    00:00 +3°C° 0.5 mm 1 mps 632 mmHg 93%
    01:00 +3°C° 0.2 mm 1 mps 632 mmHg 92%
    02:00 +3°C° 0.2 mm 1 mps 632 mmHg 92%
    03:00 +2°C° 0.2 mm 1 mps 631 mmHg 92%
    04:00 +1°C° 0.1 mm 2 mps 631 mmHg 92%
    05:00 +1°C° 0.1 mm 2 mps 631 mmHg 92%
    06:00 +1°C° 0.1 mm 2 mps 631 mmHg 91%
    07:00 +1°C° 0.1 mm 2 mps 631 mmHg 91%
    08:00 +2°C° 0.1 mm 2 mps 631 mmHg 90%
    09:00 +2°C° 0.1 mm 2 mps 632 mmHg 89%
    10:00 +2°C° 0.4 mm 3 mps 631 mmHg 88%
    11:00 +3°C° 0.4 mm 3 mps 631 mmHg 87%
    12:00 +3°C° 0.4 mm 4 mps 630 mmHg 86%
    13:00 +4°C° 0.1 mm 4 mps 630 mmHg 85%
    14:00 +4°C° 0.1 mm 4 mps 630 mmHg 85%
    15:00 +4°C° 0.1 mm 4 mps 629 mmHg 84%
    16:00 +3°C° 0.7 mm 4 mps 629 mmHg 86%
    17:00 +3°C° 0.7 mm 4 mps 629 mmHg 87%
    18:00 +3°C° 0.7 mm 4 mps 629 mmHg 89%
    19:00 +3°C° 0.7 mm 4 mps 629 mmHg 90%
    20:00 +3°C° 0.7 mm 4 mps 628 mmHg 90%
    21:00 +3°C° 0.7 mm 4 mps 628 mmHg 91%
    22:00 +3°C° 0.3 mm 4 mps 628 mmHg 91%
    23:00 +3°C° 0.3 mm 4 mps 627 mmHg 91%
    Show more